Wind_Speed
72 61 49 47 52 39 30 20 5 18 34 42 43 18 26 20 34 38 25 22 21 28 29 27 26 26 23 22 21 19 19 18 21 24 26 29 29 28 31 37 37 44 44 44
67 56 53 54 50 36 27 16 10 21 33 50 37 23 18 17 28 33 28 21 16 22 27 29 28 25 24 22 20 17 18 18 20 22 25 25 22 25 31 34 34 34 40 42
62 52 51 54 51 32 26 19 18 32 42 35 23 20 22 18 21 30 29 19 15 26 23 25 26 25 22 19 16 18 19 16 19 21 23 16 16 20 23 25 31 39 35 42
57 48 45 51 49 26 33 22 27 42 39 22 24 16 18 20 16 18 23 20 20 24 22 21 20 19 17 16 17 18 15 15 16 20 13 15 17 19 20 22 28 35 36 36
52 44 38 42 37 23 36 23 34 30 24 22 21 15 22 21 14 14 14 15 15 17 21 19 13 13 14 15 15 15 15 14 14 15 11 12 15 14 14 20 27 34 35 30
47 44 29 31 25 25 26 23 24 16 16 13 14 12 14 20 13 11 10 10 8 7 14 18 17 17 16 15 15 14 13 12 15 12 12 10 8 9 17 22 27 37 32 28
40 39 30 19 21 5 15 19 15 11 7 7 6 9 10 8 10 10 9 10 11 10 6 12 16 17 18 17 15 14 11 12 10 10 9 5 5 10 16 21 25 32 29 22
35 37 31 26 13 10 5 3 18 13 9 9 11 10 9 12 12 13 14 15 14 11 12 10 14 17 17 16 13 14 12 11 9 7 5 5 8 11 14 20 24 26 28 29
30 32 32 25 22 12 12 8 14 22 19 11 8 12 14 13 12 13 13 13 12 8 9 11 13 14 13 13 13 13 13 12 11 7 5 7 10 10 16 18 21 25 27 23
29 31 31 31 23 20 17 16 16 16 18 22 25 23 22 19 17 15 13 10 11 10 14 16 16 15 13 13 14 17 15 13 11 9 7 8 11 13 14 17 18 20 20 23
30 31 31 32 32 25 23 22 24 25 21 22 22 21 27 24 21 18 17 15 15 16 17 18 19 17 16 13 15 18 16 14 13 10 9 10 13 13 13 15 18 18 17 18
30 33 34 34 35 35 30 23 28 35 26 26 21 22 23 22 22 21 20 17 17 17 17 17 17 16 16 16 15 18 18 17 14 13 12 13 13 13 12 14 16 16 14 14
34 36 38 39 40 41 40 38 25 41 36 32 24 19 19 18 23 25 24 18 19 17 15 13 13 15 16 18 18 19 22 21 18 16 16 16 14 12 12 14 15 15 12 10
38 39 40 43 48 49 49 47 28 48 42 38 30 25 20 21 24 25 29 16 17 17 14 12 12 16 19 20 20 19 23 23 23 21 18 17 16 14 14 14 14 14 11 8
40 41 45 49 54 57 58 45 29 54 48 40 38 35 24 23 24 24 26 24 19 16 14 12 12 15 18 19 19 18 22 26 23 23 21 20 19 16 14 13 12 10 6 7
41 44 49 54 60 64 59 31 31 54 48 42 39 34 30 26 25 24 25 23 21 18 15 13 12 16 18 15 15 20 24 28 26 19 18 19 18 15 13 12 9 8 7 8
41 46 52 58 63 61 38 16 30 55 47 40 35 36 31 22 29 24 16 15 19 21 16 11 11 13 16 12 18 24 25 24 21 16 17 15 15 16 15 13 11 9 10 9
40 47 52 58 58 39 6 17 43 50 41 38 34 30 26 22 25 24 20 18 18 17 13 8 8 12 11 13 18 17 17 13 9 10 13 16 16 15 16 15 14 9 9 10
38 43 49 54 39 10 9 33 49 42 36 38 31 28 24 22 19 17 19 14 19 16 10 8 7 8 9 9 11 9 9 7 8 11 13 14 18 16 16 17 16 13 12 13
33 39 44 44 25 2 26 41 38 33 34 31 25 29 26 21 17 14 16 16 15 12 11 7 8 9 5 4 10 12 12 11 10 12 15 17 18 19 16 17 17 15 15 15
28 34 38 34 12 22 32 35 32 32 31 28 23 23 25 21 14 8 10 11 12 12 11 8 9 10 6 6 11 14 14 14 15 17 17 18 20 19 19 19 17 16 16 15
21 26 30 22 7 26 31 32 29 28 27 25 22 21 24 20 12 9 7 8 9 11 12 11 13 10 9 4 10 15 16 14 14 14 14 16 18 20 19 21 20 18 14 17
15 19 21 10 9 25 26 25 24 22 21 20 24 23 22 19 16 13 12 9 9 10 11 16 14 13 12 9 4 12 15 13 12 13 13 11 10 14 20 17 18 16 17 19
10 13 13 4 10 23 22 23 21 21 23 20 22 25 24 21 19 16 14 13 12 10 10 11 15 15 15 14 10 7 12 17 15 14 13 11 7 8 14 17 13 14 21 19
8 10 7 1 9 21 23 22 25 23 23 23 21 23 23 23 23 21 17 14 11 9 9 9 11 14 15 14 15 12 9 9 15 19 12 11 9 11 17 22 24 24 22 19
11 9 8 4 7 17 22 25 23 25 26 24 24 24 25 23 24 22 20 17 14 15 13 12 12 12 14 15 15 16 15 12 11 14 16 16 16 14 15 18 20 20 19 18
14 12 12 9 6 9 20 23 27 28 28 27 27 27 29 30 29 27 24 20 18 20 18 16 14 14 15 16 16 18 18 16 15 13 17 19 21 22 21 20 21 22 22 22
Wind_Direction
5 5 359 359 359 357 1 11 60 144 153 157 138 114 124 139 177 178 164 157 164 176 184 187 195 202 208 213 222 234 249 259 264 268 282 287 291 293 294 292 296 295 304 304
7 4 0 355 358 359 8 36 127 146 147 152 145 115 101 150 171 175 180 180 173 177 185 190 194 199 207 215 227 240 248 257 269 281 279 285 297 291 291 296 302 320 309 320
10 7 3 2 2 12 36 60 135 149 152 144 126 138 118 135 165 189 196 196 212 185 186 190 198 205 214 222 230 239 250 261 272 278 282 286 274 284 298 310 325 322 335 320
10 12 8 7 6 28 65 77 118 144 138 124 122 120 128 148 161 175 198 206 207 196 198 196 198 203 209 219 230 243 257 268 271 276 280 284 294 320 330 328 334 330 337 327
8 14 13 14 22 59 80 87 125 123 117 105 126 134 171 179 170 177 181 192 204 216 212 206 204 206 211 224 247 259 264 257 266 266 260 284 318 336 344 352 349 346 341 334
4 16 14 20 43 86 75 96 136 127 136 136 130 144 176 185 190 189 196 196 207 228 213 222 227 227 240 247 252 254 245 260 266 269 265 291 344 354 3 357 351 350 351 356
3 10 15 15 27 31 111 121 125 152 157 175 185 166 155 169 197 217 227 237 242 251 248 224 231 236 235 246 238 241 253 264 253 254 270 294 330 348 356 2 356 357 356 358
355 2 12 9 348 358 2 194 159 151 145 191 223 212 213 204 211 227 247 257 265 258 260 232 221 229 233 234 248 231 244 241 218 247 276 279 317 323 348 1 1 2 2 356
346 350 359 5 3 300 299 282 227 222 232 217 205 219 224 227 221 228 239 242 248 244 243 222 224 228 232 238 243 237 240 234 230 245 267 287 291 326 341 357 356 4 9 359
335 340 343 348 350 351 282 260 260 236 238 236 240 241 256 232 231 233 225 214 205 202 209 216 225 231 235 239 235 240 234 237 249 253 260 281 299 318 334 345 355 1 6 14
327 331 334 334 337 332 341 276 246 236 236 232 242 234 227 234 230 221 214 202 205 205 211 215 224 231 236 243 235 239 232 245 247 260 277 290 297 310 325 337 341 359 3 3
321 324 325 326 327 325 324 322 260 234 233 226 228 223 227 219 213 213 202 203 206 209 211 218 224 232 242 246 251 240 239 240 246 259 274 286 297 306 312 325 335 352 0 2
319 320 321 320 320 322 320 318 283 227 224 219 210 210 213 218 213 209 201 204 204 207 209 216 227 241 247 253 254 242 242 243 251 257 263 275 287 306 312 317 329 346 344 348
320 319 318 317 319 319 316 311 270 220 213 209 209 216 215 217 216 214 215 222 216 215 214 219 235 247 252 255 256 248 246 253 253 257 265 275 282 292 308 314 325 342 334 345
317 318 318 320 320 319 315 303 250 210 202 205 211 212 211 216 213 219 217 225 228 230 230 235 243 262 262 262 258 252 246 252 258 256 261 271 275 281 289 297 310 329 326 347
317 320 320 323 323 321 314 291 228 199 193 198 199 207 213 214 219 229 215 222 229 233 239 248 251 270 269 263 256 251 247 246 254 256 257 257 260 263 266 278 287 295 299 334
321 322 324 327 326 325 314 258 194 185 191 195 198 207 214 219 214 226 216 233 231 230 237 239 258 280 276 258 242 250 251 249 254 251 243 235 241 244 245 250 252 259 265 298
324 325 329 331 333 328 314 170 171 174 183 189 194 197 205 206 209 219 234 237 221 224 217 236 276 296 275 252 258 261 262 267 242 240 234 228 236 244 240 239 235 234 251 276
325 329 333 339 336 337 145 158 165 169 177 188 189 192 188 198 210 227 225 225 219 213 221 255 281 299 287 266 261 267 260 256 258 241 233 234 233 239 239 236 239 244 258 266
329 334 339 345 350 101 147 156 165 169 182 184 186 190 198 206 220 228 220 226 222 218 235 246 279 294 274 261 248 228 234 240 254 249 235 239 243 241 235 235 243 250 257 265
334 339 345 353 14 141 153 156 165 181 186 185 191 197 200 202 210 208 214 228 230 231 230 249 269 276 270 226 225 239 244 250 252 257 250 243 242 241 240 239 238 245 262 273
336 342 348 5 113 161 165 166 172 181 186 192 194 193 194 200 214 235 241 251 244 248 239 255 255 270 293 283 220 233 240 244 238 238 246 244 244 246 242 236 240 241 256 270
329 344 355 20 153 171 178 179 188 193 196 204 204 205 210 222 235 243 251 261 275 280 271 252 260 263 279 291 252 220 239 241 235 239 245 245 249 243 236 237 237 235 240 254
309 332 356 29 181 183 186 195 203 203 205 208 212 221 228 230 236 241 248 269 284 294 271 260 256 263 269 278 281 245 228 233 236 246 248 242 237 228 219 226 210 232 239 254
270 302 335 327 196 202 203 210 215 216 216 220 221 224 228 236 240 242 250 259 272 273 275 274 268 261 265 275 275 278 262 241 243 243 253 249 227 228 213 211 222 236 242 243
243 265 287 307 214 210 219 222 225 227 226 229 234 238 240 242 243 242 249 254 259 265 272 278 279 278 272 270 273 272 272 268 247 245 251 264 263 245 235 235 235 232 228 232
232 242 257 267 258 235 216 224 236 237 238 238 240 245 246 246 245 248 253 256 259 262 270 275 274 269 265 262 265 269 271 266 261 247 246 246 254 264 254 243 238 241 244 247
Height
5575 5558 5547 5539 5526 5514 5507 5502 5502 5502 5506 5517 5524 5538 5543 5549 5557 5566 5574 5579 5583 5588 5595 5601 5607 5613 5619 5623 5627 5631 5634 5637 5638 5637 5637 5636 5638 5637 5634 5629 5627 5618 5615 5606
5579 5564 5552 5542 5530 5516 5510 5505 5508 5510 5518 5529 5537 5541 5548 5555 5562 5570 5575 5580 5586 5591 5595 5601 5607 5613 5617 5621 5626 5630 5631 5633 5633 5633 5633 5634 5634 5630 5627 5623 5619 5615 5606 5601
5582 5571 5560 5548 5535 5521 5515 5514 5519 5523 5532 5541 5545 5551 5556 5562 5566 5571 5577 5583 5587 5591 5596 5601 5606 5611 5616 5620 5624 5626 5627 5630 5630 5630 5629 5631 5630 5627 5624 5618 5612 5605 5603 5589
5586 5577 5567 5557 5544 5532 5528 5530 5532 5537 5546 5552 5556 5558 5562 5566 5571 5576 5581 5584 5588 5592 5597 5600 5605 5610 5614 5618 5621 5623 5625 5626 5627 5625 5625 5625 5625 5623 5617 5613 5610 5602 5596 5585
5591 5582 5574 5567 5557 5547 5545 5549 5553 5557 5558 5555 5559 5563 5566 5569 5574 5578 5582 5585 5589 5592 5596 5601 5606 5609 5613 5616 5618 5620 5622 5624 5623 5622 5623 5623 5621 5618 5616 5612 5606 5599 5590 5583
5597 5587 5581 5576 5574 5565 5561 5563 5565 5566 5568 5568 5570 5571 5573 5576 5578 5581 5583 5587 5591 5594 5598 5601 5604 5608 5611 5614 5616 5618 5619 5619 5619 5620 5620 5620 5619 5616 5612 5609 5603 5596 5590 5582
5598 5591 5587 5582 5581 5579 5576 5573 5574 5574 5575 5575 5576 5577 5578 5580 5582 5584 5586 5588 5592 5595 5598 5601 5604 5606 5609 5611 5613 5615 5615 5616 5617 5617 5617 5617 5616 5613 5611 5607 5602 5596 5588 5581
5599 5593 5588 5587 5583 5584 5582 5582 5579 5579 5579 5579 5579 5580 5581 5582 5584 5585 5586 5588 5590 5593 5596 5599 5602 5604 5607 5609 5610 5611 5613 5614 5615 5615 5615 5615 5614 5612 5611 5606 5602 5597 5590 5584
5597 5593 5588 5584 5584 5582 5582 5581 5579 5578 5578 5580 5580 5580 5581 5581 5582 5584 5585 5587 5589 5592 5595 5597 5599 5602 5605 5607 5607 5608 5610 5612 5613 5613 5613 5613 5613 5611 5608 5605 5602 5597 5592 5586
5594 5591 5586 5582 5578 5577 5577 5578 5576 5574 5574 5575 5575 5577 5579 5580 5581 5582 5583 5585 5587 5589 5592 5595 5597 5600 5602 5604 5605 5607 5608 5609 5611 5611 5611 5611 5611 5610 5608 5605 5604 5598 5595 5591
5590 5586 5582 5577 5574 5571 5571 5569 5570 5569 5569 5569 5570 5571 5574 5576 5578 5579 5581 5584 5585 5588 5590 5593 5595 5597 5599 5602 5603 5604 5606 5608 5608 5609 5609 5610 5609 5609 5608 5605 5601 5598 5595 5593
5584 5580 5575 5571 5566 5562 5560 5560 5559 5559 5560 5563 5565 5566 5568 5570 5574 5578 5579 5582 5584 5586 5588 5590 5592 5594 5596 5598 5600 5601 5604 5605 5606 5607 5607 5606 5607 5606 5605 5604 5601 5598 5597 5594
5576 5571 5567 5561 5556 5550 5545 5543 5542 5545 5550 5554 5558 5560 5563 5566 5570 5573 5578 5580 5582 5583 5585 5587 5589 5591 5593 5594 5596 5597 5600 5601 5603 5604 5605 5604 5605 5605 5604 5602 5600 5598 5596 5595
5568 5562 5555 5548 5542 5535 5529 5523 5522 5527 5536 5544 5550 5555 5559 5563 5566 5570 5574 5577 5579 5582 5583 5584 5585 5587 5588 5589 5590 5592 5595 5597 5599 5600 5601 5601 5602 5602 5601 5601 5599 5597 5596 5595
5559 5552 5544 5536 5526 5515 5507 5498 5499 5508 5522 5533 5542 5549 5554 5559 5563 5567 5571 5574 5577 5579 5581 5581 5583 5583 5584 5584 5586 5588 5588 5591 5593 5594 5597 5597 5599 5599 5599 5598 5597 5596 5596 5594
5551 5543 5533 5522 5509 5495 5481 5473 5477 5494 5512 5524 5534 5542 5549 5554 5559 5563 5566 5571 5574 5576 5577 5579 5579 5578 5579 5581 5582 5581 5582 5584 5586 5589 5591 5592 5594 5596 5595 5595 5595 5595 5595 5593
5542 5534 5524 5510 5494 5475 5461 5458 5467 5488 5508 5519 5530 5538 5545 5550 5555 5559 5563 5566 5569 5572 5575 5576 5576 5575 5573 5576 5574 5573 5576 5580 5583 5585 5586 5588 5589 5591 5591 5592 5592 5593 5593 5593
5535 5527 5516 5501 5480 5464 5455 5458 5471 5491 5506 5517 5527 5536 5542 5547 5552 5556 5560 5562 5565 5568 5571 5572 5572 5571 5570 5570 5570 5571 5573 5577 5579 5579 5581 5583 5585 5587 5587 5588 5589 5590 5591 5591
5528 5522 5511 5496 5479 5468 5465 5468 5482 5496 5509 5517 5527 5534 5541 5546 5550 5553 5556 5559 5562 5565 5567 5568 5569 5567 5566 5566 5566 5568 5570 5573 5574 5576 5577 5579 5581 5582 5583 5584 5586 5587 5588 5588
5522 5519 5509 5495 5481 5475 5477 5485 5494 5503 5510 5520 5528 5534 5540 5546 5549 5551 5554 5556 5558 5562 5565 5565 5563 5562 5561 5561 5562 5564 5566 5568 5569 5571 5572 5574 5576 5577 5579 5581 5582 5584 5584 5585
5519 5517 5509 5498 5487 5488 5491 5497 5504 5508 5516 5523 5529 5534 5539 5545 5548 5550 5552 5553 5556 5559 5561 5560 5559 5558 5557 5557 5558 5560 5562 5564 5566 5567 5568 5569 5571 5572 5575 5577 5578 5580 5581 5581
5517 5517 5511 5503 5499 5500 5502 5505 5509 5515 5522 5527 5530 5535 5539 5543 5546 5548 5551 5552 5555 5555 5556 5556 5555 5557 5556 5555 5555 5557 5559 5561 5561 5562 5563 5565 5566 5566 5568 5570 5573 5576 5577 5577
5516 5516 5513 5508 5508 5509 5513 5516 5518 5521 5525 5528 5532 5535 5539 5542 5545 5547 5548 5550 5551 5552 5553 5552 5553 5554 5553 5552 5552 5553 5555 5557 5558 5559 5559 5560 5560 5561 5563 5565 5568 5571 5573 5573
5514 5514 5513 5512 5510 5512 5515 5517 5519 5522 5525 5527 5531 5534 5537 5540 5542 5544 5546 5548 5548 5549 5549 5549 5550 5550 5551 5550 5550 5550 5551 5552 5554 5555 5556 5556 5557 5557 5559 5562 5565 5566 5567 5568
5510 5511 5511 5511 5511 5512 5514 5516 5518 5521 5524 5526 5529 5532 5535 5536 5538 5541 5543 5544 5545 5545 5545 5545 5546 5546 5547 5547 5547 5548 5547 5548 5549 5551 5552 5553 5554 5555 5556 5558 5560 5561 5563 5564
5506 5507 5509 5509 5508 5509 5511 5514 5516 5518 5521 5523 5525 5527 5530 5532 5534 5537 5538 5540 5541 5542 5541 5542 5542 5542 5543 5543 5544 5544 5545 5545 5546 5546 5548 5550 5551 5552 5553 5554 5556 5557 5558 5559
5500 5503 5504 5504 5505 5505 5505 5508 5511 5514 5516 5518 5519 5522 5524 5526 5528 5532 5534 5537 5536 5536 5537 5537 5538 5538 5538 5538 5539 5540 5541 5541 5541 5542 5543 5544 5546 5548 5549 5550 5551 5553 5554 5555